Regional Weather Roundup
Issued by NWS Jackson, KY

Home | Current Version | Previous Version | Graphics & Text | Print | Product List | Glossary On
Versions: 1 2 3 4 5 6 7 8 9 10 11 12 13 14 15 16 17 18 19 20 21 22 23 24 25 26 27
000
ASUS43 KJKL 271310
RWRJKL

EAST KENTUCKY HOURLY WEATHER ROUNDUP
NATIONAL WEATHER SERVICE JACKSON KY
900 AM EDT FRI MAY 27 2016

NOTE: "FAIR" INDICATES FEW OR NO CLOUDS BELOW 12,000 FEET WITH
NO SIGNIFICANT WEATHER AND/OR OBSTRUCTIONS TO VISIBILITY.

* THESE REPORTS ARE NOT UNDER NWS QUALITY CONTROL AND MAY NOT
  REPORT WEATHER SUCH AS PRECIPITATION AND FOG.

KYZ079-080-083-085-087-088-110-112-115-119-120-271400
...EASTERN KENTUCKY...

CITY           SKY/WX    TMP DP  RH WIND       PRES   REMARKS
JACKSON        SUNNY     71  62  73 VRB3      30.11S
LONDON         SUNNY     72  62  71 S6        30.11R
SOMERSET*      SUNNY     68  64  88 S5        30.11R
MONTICELLO*    SUNNY     73  66  78 NE7       30.11R
WILLIAMSBURG*  SUNNY     68  63  83 SE7       30.12S
MIDDLESBORO*   SUNNY     67  64  89 CALM      30.14S
HARLAN APT*      N/A     64  61  88 CALM      30.16R
HAZARD APT*    SUNNY     72  66  83 CALM      30.12S
BLACK MTN*       N/A     68  61  77 S3          N/A
PIKE CO APT*     N/A     69  63  81 S5        30.12S
MOREHEAD APT*  CLOUDY    72  64  78 VRB3      30.10S
ASHLAND*       CLOUDY    70  66  88 CALM      30.06S
$$

KYZ035-036-041-042-044-050-067-078-099-271400
...CENTRAL KENTUCKY...

CITY           SKY/WX    TMP DP  RH WIND       PRES   REMARKS
MT STERLING*   SUNNY     72  64  78 SW7       30.09S
FLEMING/MASON* SUNNY     71  65  80 SW9       30.09R
DANVILLE*      SUNNY     70  63  78 SW6       30.09S
RICHMOND*      SUNNY     73  63  68 S9        30.08S
LEXINGTON      SUNNY     71  64  78 S7        30.07S
FRANKFORT      MOSUNNY   69  63  81 SE5       30.05R
LOUISVILLE     PTSUNNY   71  64  78 SE8       30.03R
LEBANON*         N/A     72  64  78 S6        30.07R
GLASGOW*       CLOUDY    72  64  75 S6        30.05S
BOWLING GREEN  MOSUNNY   72  66  81 S5        30.04S
$$

KYZ091>093-OHZ055-061-077-WVZ005-015-034-035-042-271400
...SOUTHERN OHIO/WEST VIRGINIA...

CITY           SKY/WX    TMP DP  RH WIND       PRES   REMARKS
COVINGTON      MOSUNNY   70  64  81 SW10      30.05R
COLUMBUS       PTSUNNY   70  62  76 VRB5      30.04F
DAYTON         MOSUNNY   68  63  84 SW10      30.06R
WILMINGTON     SUNNY     70  64  81 SW10      30.05S
HUNTINGTON     CLOUDY    68  66  93 SE5       30.08F
CHARLESTON       N/A     72  63  73 CALM      30.10R
PINEVILLE*       N/A     65  62  87 MISG      30.20S
BECKLEY          N/A     70  56  61 SW5       30.18R
BLUEFIELD        N/A     71  56  58 W5        30.21R
LOGAN CO APT*    N/A     72  63  73 CALM      30.13S
$$

VAZ002-007-008-TNZ017-027-036-066-071-271400
...SOUTHWEST VIRGINIA/EAST TENNESSEE...

CITY           SKY/WX    TMP DP  RH WIND       PRES   REMARKS
WISE*            N/A     72  55  56 SW6       30.21R
JONESVILLE*      N/A     66  63  88 CALM      30.17S
ABINGDON*        N/A     71  64  78 SE6       30.18R
BRISTOL        MOSUNNY   67  62  84 CALM      30.16R
SEVIERVILLE*   PTSUNNY   64  63  94 CALM      30.13R
KNOXVILLE      MOSUNNY   70  64  81 NE7       30.12R
OAK RIDGE      SUNNY     71  63  75 CALM      30.14R
CROSSVILLE     SUNNY     72  63  73 VRB5      30.15R
NASHVILLE      CLOUDY    74  63  68 SE7       30.05R
$$

...KEY TO REMARKS...
VSB - VISIBILITY IN MILES
WCI - WIND CHILL INDEX
HX  - HEAT INDEX

$$




USA.gov is the U.S. government's official web portal to all federal, state and local government web resources and services.